カタログに戻る

STARLINK-36432

運用中通信VLEO
NORAD 67342·PAYLOAD·🇺🇸 United States

打ち上げ Jan 9, 2026 から Cape Canaveral Space Force Station

Loading…

次のパス (今後24時間)

TLE

最新Source: CelesTrak SupGP

元期: Sep 14, 2026, 22:57 UTC

1 67342C 26003J   26257.95673611  .00026530  00000+0  96066-3 0  2575
2 67342  43.0003 237.8453 0001337 275.1709  90.2356 15.27574241    15

AllMySatでSTARLINK-36432をリアルタイム追跡

Download on the App Store